Regional Weather Roundup
Issued by NWS Newport/Morehead, NC

Current Version | Previous Version | Graphics & Text | Print | Product List | Glossary Off
Versions: 1 2 3 4 5 6 7 8 9 10 11 12 13 14 15 16 17 18 19 20 21 22 23 24 25 26 27 28 29 30 31 32 33 34 35 36 37 38 39 40 41 42 43 44 45 46 47 48 49 50

000
ASUS42 KMHX 280424
RWRMHX
WEATHER ROUNDUP FOR EASTERN NORTH CAROLINA
NATIONAL WEATHER SERVICE NEWPORT/MOREHEAD CITY NC
1200 AM EDT SAT MAR 28 2015

NOTE: "FAIR" INDICATES FEW OR NO CLOUDS BELOW 12,000 FEET
WITH NO SIGNIFICANT WEATHER AND/OR OBSTRUCTIONS TO VISIBILITY

NCZ015>017-031-032-045>047-102-103-280500-
NORTH COAST

CITY           SKY/WX    TMP DP  RH WIND       PRES   REMARKS
EDENTON        CLOUDY    40  38  91 N5        29.78F
ELIZABETH CITY CLOUDY    41  38  89 N10       29.78R
KITTY HAWK     CLOUDY    39  38  97 N13G21    29.75R FOG
MANTEO         CLOUDY    39  37  92 N15G26    29.77R

$$

NCZ045>047-081-094-103-104-280500-
CENTRAL COAST

CITY           SKY/WX    TMP DP  RH WIND       PRES   REMARKS
FRISCO         CLOUDY    42  39  89 N14G29    29.72R
SWANQUARTER      N/A     41 N/A N/A NE7G16    29.74S

$$

NCZ095-097-098-100-101-280500-
SOUTHERN COAST

CITY           SKY/WX    TMP DP  RH WIND       PRES   REMARKS
BEAUFORT       CLOUDY    44  41  89 N12       29.76R
CEDAR ISLAND     N/A     45 N/A N/A N17G31    29.79S
JACKSONVILLE   CLOUDY    43  38  82 NW8       29.79R
PINEY ISLAND   CLOUDY   N/A N/A N/A N20G28    29.76R
WILMINGTON     CLOUDY    44  39  82 N6        29.80F


$$

NCZ011>013-027>030-043-044-078>080-089-090>093-098-280500-
COASTAL PLAIN

CITY           SKY/WX    TMP DP  RH WIND       PRES   REMARKS
AHOSKIE        CLOUDY    39  38  94 CALM      29.81R
CLINTON        MOCLDY    42  40  93 CALM      29.84R
ELIZABETHTOWN  MOCLDY    43  41  92 CALM      29.83S
GOLDSBORO      PTCLDY    42  41  98 NW7       29.80R
GREENVILLE     MOCLDY    41  37  87 CALM      29.83S
HAVELOCK       CLOUDY    44  40  85 N13       29.79R
KENANSVILLE    CLOUDY    42  39  89 NW6       29.82S
KINSTON        MOCLDY    41  37  87 NW6       29.82R
NEW BERN       CLOUDY    43  39  86 N9        29.80R
RICHLANDS      CLOUDY    41  36  81 CALM      29.80S
ROCKY MOUNT    PTCLDY    40  36  86 NW7       29.83R
WASHINGTON     CLOUDY    41  39  92 N5        29.79F
WHITEVILLE     CLOUDY    44  41  87 CALM      29.83S

$$

AMZ130-135-150-152-154-156-158-170-250-252-270-ANZ085-086-088-633-658-670-280500-
MARINE OBSERVATIONS

STATION/POSITION TIME  TEMP    WIND        PRES    WAVE   SWELL
                       AIR SEA DIR/SP/G            HT/PER HT/PER
                 (UTC) (F)     (DEG/KT/KT) (MB)    (FT/S) (FT/S)
CHESAPEAKE LIGHT 0400   40      20/ 17/ 18 1008.5
64 E VA BEACH    0350   44 57  350/ 25/ 31 1005.1   10/ 8
DUCK             0400           10/ 19/ 21   N/A
2 E DUCK         0311      41                N/A     7/ 6   2/11
10 NE DUCK       NOT AVBL
OREGON INLET     0400   39 46  350/ 16/ 23 1007.1
HATTERAS CG      0300   45 56   10/ 24/ 27 1006.4
CAPE LOOKOUT     0400   45     350/ 19/ 22 1007.4
BEAUFORT LAB     0300   45 58  360/ 14/ 20 1006.2
27 SE WRIGHTSVLE 0400   46 64   10/ 17/ 23 1009.7
5 SE WRIGHTSVLE  0400   47 56  360/ 14/ 17 1008.9
225 S CAPE HAT   0350   70 69  210/ 23/ 29 1004.8   11/ 8
41 SE CHARLESTON 0350   54 69  330/ 14/ 17 1009.7    5/ 6   3/ 8

$$



USA.gov is the U.S. government's official web portal to all federal, state and local government web resources and services.